User: anonymous   Login
Location: Unspecified
(0.0000°N, 0.0000°E)
Time: 20:17:19
(UTC+00:00)
Language:

Polar BEAR P87-1 - Orbit

View from above orbital plane
View from above orbital plane
View from above satellite
View from above satellite

Ground track
Ground track

The orbit data is extracted from the following two-line orbital elements,

1 17070U 86088A   19341.42473889  .00000021  00000-0  10844-4 0  9992
2 17070  89.5273 282.2365 0036680 265.4212 210.2218 13.74789871658127
Epoch (UTC): 07 December 2019 10:11:37
Eccentricity: 0.0036680
inclination: 89.5273°
perigee height: 955 km
apogee height: 1009 km
right ascension of ascending node: 282.2365°
argument of perigee: 265.4212°
revolutions per day: 13.74789871
mean anomaly at epoch: 210.2218°
orbit number at epoch: 65812

The dashed part of the orbit path shows where the satellite is in the earth's shadow,  

DLR